• In Austria
  • List of Countries
  • For 7 days
  • Water Temperature
  • Satellite Maps
  • Weather Map
  • News
  • Weather Widgets
  • user-avatar
    Login

    Hourly Weather Pinsk

    Today, 19 July, Thursday

    Time Temperature Precipitation Wind Pressure Humidity
    00:00 +20°C° 0 mm 2 mps 741 mmHg 96%
    01:00 +20°C° 0 mm 2 mps 741 mmHg 97%
    02:00 +19°C° 0 mm 2 mps 741 mmHg 96%
    03:00 +19°C° 0 mm 2 mps 741 mmHg 97%
    04:00 +19°C° 0 mm 2 mps 741 mmHg 97%
    05:00 +19°C° 0 mm 2 mps 741 mmHg 97%
    06:00 +20°C° 0 mm 2 mps 741 mmHg 94%
    07:00 +21°C° 0 mm 3 mps 742 mmHg 90%
    08:00 +24°C° 0 mm 3 mps 742 mmHg 85%
    09:00 +25°C° 0.1 mm 3 mps 742 mmHg 77%
    10:00 +26°C° 0.1 mm 3 mps 742 mmHg 69%
    11:00 +28°C° 0.1 mm 4 mps 742 mmHg 61%
    12:00 +28°C° 0.1 mm 4 mps 741 mmHg 59%
    13:00 +29°C° 0.1 mm 4 mps 741 mmHg 57%
    14:00 +29°C° 0.1 mm 4 mps 741 mmHg 55%
    15:00 +29°C° 0.1 mm 4 mps 741 mmHg 57%
    16:00 +29°C° 0.1 mm 5 mps 741 mmHg 58%
    17:00 +28°C° 0.1 mm 5 mps 741 mmHg 60%
    18:00 +27°C° 0.1 mm 4 mps 741 mmHg 67%
    19:00 +25°C° 0.1 mm 4 mps 741 mmHg 73%
    20:00 +24°C° 0.1 mm 3 mps 741 mmHg 80%
    21:00 +22°C° 0 mm 3 mps 741 mmHg 84%
    22:00 +21°C° 0 mm 3 mps 741 mmHg 88%
    23:00 +20°C° 0 mm 3 mps 741 mmHg 92%

    Tomorrow, 20 July, Friday

    Time Temperature Precipitation Wind Pressure Humidity
    00:00 +19°C° 0 mm 3 mps 741 mmHg 93%
    01:00 +19°C° 0 mm 3 mps 741 mmHg 95%
    02:00 +19°C° 0 mm 3 mps 741 mmHg 96%
    03:00 +18°C° 0 mm 3 mps 741 mmHg 97%
    04:00 +18°C° 0 mm 3 mps 741 mmHg 97%
    05:00 +18°C° 0 mm 3 mps 741 mmHg 98%
    06:00 +19°C° 0 mm 3 mps 742 mmHg 94%
    07:00 +20°C° 0 mm 3 mps 742 mmHg 90%
    08:00 +21°C° 0 mm 4 mps 742 mmHg 86%
    09:00 +23°C° 0.1 mm 4 mps 742 mmHg 81%
    10:00 +25°C° 0.1 mm 4 mps 742 mmHg 76%
    11:00 +26°C° 0.1 mm 4 mps 742 mmHg 71%
    12:00 +27°C° 0.6 mm 4 mps 742 mmHg 69%
    13:00 +28°C° 0.6 mm 4 mps 742 mmHg 67%
    14:00 +28°C° 0.6 mm 4 mps 742 mmHg 65%
    15:00 +28°C° 0.5 mm 4 mps 742 mmHg 67%
    16:00 +28°C° 0.5 mm 4 mps 742 mmHg 68%
    17:00 +28°C° 0.5 mm 4 mps 742 mmHg 70%
    18:00 +26°C° 0.8 mm 4 mps 742 mmHg 75%
    19:00 +25°C° 0.8 mm 3 mps 742 mmHg 81%
    20:00 +24°C° 0.8 mm 3 mps 742 mmHg 87%
    21:00 +22°C° 1.2 mm 3 mps 742 mmHg 89%
    22:00 +21°C° 1.2 mm 3 mps 742 mmHg 91%
    23:00 +21°C° 1.2 mm 3 mps 742 mmHg 93%

    Day after tomorrow, 21 July, Saturday

    Time Temperature Precipitation Wind Pressure Humidity
    00:00 +20°C° 0.6 mm 3 mps 742 mmHg 94%
    01:00 +20°C° 0.6 mm 3 mps 742 mmHg 95%
    02:00 +20°C° 0.6 mm 3 mps 743 mmHg 96%
    03:00 +19°C° 0.4 mm 3 mps 743 mmHg 96%
    04:00 +19°C° 0.4 mm 3 mps 743 mmHg 97%
    05:00 +19°C° 0.4 mm 3 mps 743 mmHg 97%
    06:00 +20°C° 0.1 mm 4 mps 743 mmHg 95%
    07:00 +20°C° 0.1 mm 4 mps 743 mmHg 93%
    08:00 +21°C° 0.1 mm 4 mps 744 mmHg 91%
    09:00 +22°C° 0.1 mm 4 mps 744 mmHg 85%
    10:00 +23°C° 0.1 mm 4 mps 744 mmHg 80%
    11:00 +25°C° 0.1 mm 4 mps 744 mmHg 74%
    12:00 +26°C° 0.2 mm 5 mps 744 mmHg 70%
    13:00 +27°C° 0.2 mm 5 mps 744 mmHg 66%
    14:00 +28°C° 0.2 mm 5 mps 744 mmHg 62%
    15:00 +27°C° 0.3 mm 5 mps 744 mmHg 64%
    16:00 +27°C° 0.3 mm 5 mps 744 mmHg 67%
    17:00 +27°C° 0.3 mm 5 mps 744 mmHg 69%
    18:00 +25°C° 0.3 mm 4 mps 744 mmHg 73%
    19:00 +24°C° 0.3 mm 3 mps 744 mmHg 78%
    20:00 +22°C° 0.3 mm 3 mps 744 mmHg 83%
    21:00 +21°C° 0.1 mm 3 mps 744 mmHg 85%
    22:00 +20°C° 0.1 mm 3 mps 744 mmHg 87%
    23:00 +19°C° 0.1 mm 3 mps 744 mmHg 89%

    22 July, Sunday

    Time Temperature Precipitation Wind Pressure Humidity
    00:00 +19°C° 0 mm 3 mps 744 mmHg 91%
    01:00 +18°C° 0 mm 3 mps 744 mmHg 92%
    02:00 +18°C° 0 mm 3 mps 744 mmHg 94%
    03:00 +17°C° 0 mm 3 mps 744 mmHg 94%
    04:00 +17°C° 0 mm 2 mps 744 mmHg 95%
    05:00 +17°C° 0 mm 2 mps 744 mmHg 96%
    06:00 +18°C° 0 mm 3 mps 744 mmHg 91%
    07:00 +20°C° 0 mm 3 mps 744 mmHg 86%
    08:00 +21°C° 0 mm 3 mps 744 mmHg 81%
    09:00 +24°C° 0 mm 3 mps 744 mmHg 74%
    10:00 +25°C° 0 mm 3 mps 744 mmHg 67%
    11:00 +27°C° 0 mm 4 mps 744 mmHg 60%
    12:00 +27°C° 0.1 mm 3 mps 744 mmHg 58%
    13:00 +28°C° 0.1 mm 3 mps 744 mmHg 57%
    14:00 +28°C° 0.1 mm 3 mps 744 mmHg 55%
    15:00 +28°C° 0.2 mm 3 mps 743 mmHg 57%
    16:00 +27°C° 0.2 mm 3 mps 743 mmHg 60%
    17:00 +27°C° 0.2 mm 3 mps 743 mmHg 62%
    18:00 +26°C° 0.2 mm 3 mps 743 mmHg 68%
    19:00 +24°C° 0.2 mm 2 mps 743 mmHg 74%
    20:00 +23°C° 0.2 mm 2 mps 743 mmHg 80%
    21:00 +21°C° 0 mm 2 mps 744 mmHg 82%
    22:00 +20°C° 0 mm 2 mps 744 mmHg 85%
    23:00 +19°C° 0 mm 2 mps 744 mmHg 87%

    23 July, Monday

    Time Temperature Precipitation Wind Pressure Humidity
    00:00 +19°C° 0 mm 2 mps 744 mmHg 89%
    01:00 +18°C° 0 mm 2 mps 744 mmHg 90%
    02:00 +18°C° 0 mm 2 mps 743 mmHg 92%
    03:00 +17°C° 0 mm 2 mps 744 mmHg 93%
    04:00 +17°C° 0 mm 2 mps 744 mmHg 93%
    05:00 +17°C° 0 mm 2 mps 744 mmHg 94%
    06:00 +18°C° 0 mm 2 mps 744 mmHg 89%
    07:00 +20°C° 0 mm 2 mps 744 mmHg 83%
    08:00 +22°C° 0 mm 3 mps 744 mmHg 78%
    09:00 +24°C° 0 mm 3 mps 744 mmHg 71%
    10:00 +26°C° 0 mm 4 mps 744 mmHg 64%
    11:00 +27°C° 0 mm 4 mps 744 mmHg 57%
    12:00 +28°C° 0 mm 4 mps 744 mmHg 54%
    13:00 +28°C° 0 mm 4 mps 744 mmHg 52%
    14:00 +29°C° 0 mm 5 mps 744 mmHg 49%
    15:00 +28°C° 0 mm 4 mps 744 mmHg 51%
    16:00 +28°C° 0 mm 4 mps 744 mmHg 52%
    17:00 +28°C° 0 mm 4 mps 744 mmHg 53%
    18:00 +26°C° 0 mm 3 mps 744 mmHg 60%
    19:00 +24°C° 0 mm 3 mps 745 mmHg 66%
    20:00 +23°C° 0 mm 2 mps 745 mmHg 73%
    21:00 +21°C° 0 mm 2 mps 745 mmHg 76%
    22:00 +20°C° 0 mm 2 mps 745 mmHg 79%
    23:00 +19°C° 0 mm 2 mps 745 mmHg 82%

    24 July, Tuesday

    Time Temperature Precipitation Wind Pressure Humidity
    00:00 +18°C° 0 mm 2 mps 745 mmHg 84%
    01:00 +18°C° 0 mm 2 mps 745 mmHg 86%
    02:00 +17°C° 0 mm 2 mps 745 mmHg 89%
    03:00 +17°C° 0 mm 2 mps 746 mmHg 91%
    04:00 +17°C° 0 mm 2 mps 746 mmHg 92%
    05:00 +16°C° 0 mm 2 mps 746 mmHg 94%
    06:00 +18°C° 0 mm 2 mps 746 mmHg 88%
    07:00 +20°C° 0 mm 2 mps 747 mmHg 82%
    08:00 +21°C° 0 mm 3 mps 747 mmHg 76%
    09:00 +24°C° 0 mm 3 mps 747 mmHg 69%
    10:00 +25°C° 0 mm 3 mps 747 mmHg 63%
    11:00 +26°C° 0 mm 3 mps 747 mmHg 56%
    12:00 +27°C° 0 mm 3 mps 747 mmHg 54%
    13:00 +27°C° 0 mm 3 mps 747 mmHg 52%
    14:00 +28°C° 0 mm 3 mps 746 mmHg 50%
    15:00 +28°C° 0 mm 3 mps 746 mmHg 51%
    16:00 +28°C° 0 mm 3 mps 746 mmHg 52%
    17:00 +27°C° 0 mm 3 mps 746 mmHg 53%
    18:00 +26°C° 0 mm 3 mps 747 mmHg 60%
    19:00 +24°C° 0 mm 2 mps 747 mmHg 67%
    20:00 +21°C° 0 mm 2 mps 747 mmHg 74%
    21:00 +20°C° 0 mm 2 mps 747 mmHg 77%
    22:00 +20°C° 0 mm 1 mps 747 mmHg 80%
    23:00 +19°C° 0 mm 1 mps 747 mmHg 83%
    Show more